sat.trackr.live / text

‹ back to catalog

STARLINK-34238

NORAD 65415 · 2025-192M

PAYLOAD ACTIVE UNKNOWN

§ Identity

Operator
Country
US
Launch date
2025-08-31
Launch site
AFETR
Launch vehicle
Mass (kg)
RCS (m²)

Purposes: comms

External: N2YO · Heavens-Above · Gunter

§ Orbital elements

Epoch: 2026-09-20T20:41:24.617472Z

Period
93.85 min
Inclination
53.1598°
Eccentricity
0.0000677
Mean motion
15.34404898 rev/d
Perigee alt
462.2 km
Apogee alt
463.2 km
Semi-major
6,840.8 km
B*
7.3524e-4
RAAN
43.8324°
Arg perigee
78.2680°
Mean anomaly
281.8398°
Rev number
5,929

§ Raw data

STARLINK-342381 65415U 25192M   26263.86209048  .00024550  00000+0  73524-3 0  99952 65415  53.1598  43.8324 0000677  78.2680 281.8398 15.34404898 59299

JSON: /api/v1/satellites/65415 · /tle

For live sub-satellite position, see the globe view (requires WebGL).

§ Visibility from observer

Set your observer location to see the next 7 days of passes ≥ 10°. The values pass through the URL so the page stays shareable.

No JS? Fill the form by hand. The geolocation button needs JavaScript.